Location: St. Louis
(38.6270°N, 90.1994°W)
Time: 11:59:29
(UTC-06:00)

S-56A Canister/Altair - Pass Details

Date: 09 December 2021
Orbit: 634 x 2499 km, 38.9° (Epoch: 26 January)

Event Time Altitude Azimuth Distance (km) Brightness Sun altitude
Rises 04:33:56 0° 281° (W) 3,899 - -29.1°
Reaches altitude 10° 04:37:47 10° 265° (W) 2,626 - -28.4°
Maximum altitude 04:41:48 19° 222° (SW) 1,809 - -27.6°
Exits shadow 04:44:11 14° 189° (S) 1,945 9.6 -27.1°
Drops below altitude 10° 04:45:11 10° 177° (S) 2,148 9.9 -26.9°
Sets 04:47:57 0° 158° (SSE) 2,956 10.9 -26.4°
